FW8579 Weather Reports


time (UTC)temp
C
wind
direction
speed
KPH
gust
KPH
rain 1hr
cm
rain 24hr
cm
rain mn
cm
humidity
%
barometer
mb
20260505224520 15 300 4.8 12.9 0.00 0.03 0.03 71 1016.3
20260505223523 16 272 6.4 12.9 0.00 0.03 0.03 70 1016.2
20260505222546 16 269 6.4 12.9 0.00 0.03 0.03 69 1016.2
20260505221529 16 279 4.8 11.3 0.00 0.03 0.03 70 1016.3
20260505220535 16 268 4.8 12.9 0.00 0.03 0.03 67 1016.3
20260505215518 17 282 3.2 12.9 0.00 0.03 0.03 67 1016.4
20260505214643 16 275 4.8 12.9 0.00 0.03 0.03 69 1016.5
20260505213528 16 319 3.2 12.9 0.00 0.03 0.03 70 1016.5
20260505212535 16 274 4.8 12.9 0.00 0.03 0.03 72 1016.5
20260505211520 16 278 4.8 11.3 0.00 0.03 0.03 73 1016.4
20260505210522 15 277 4.8 9.7 0.00 0.03 0.03 74 1016.4
20260505205545 15 271 3.2 9.7 0.00 0.03 0.03 75 1016.4
20260505204528 15 2 3.2 9.7 0.00 0.03 0.03 77 1016.5
20260505203535 14 302 3.2 11.3 0.00 0.03 0.03 79 1016.7
20260505202520 14 275 3.2 11.3 0.00 0.03 0.03 78 1016.7
20260505201525 14 283 4.8 9.7 0.00 0.03 0.03 80 1016.6
20260505200528 14 275 4.8 11.3 0.00 0.03 0.03 79 1016.5
20260505195533 14 275 3.2 9.7 0.00 0.03 0.03 78 1016.5
20260505194517 14 291 3.2 6.4 0.00 0.03 0.03 79 1016.5
20260505193522 14 267 3.2 9.7 0.00 0.03 0.03 78 1016.3
20260505192546 15 255 3.2 6.4 0.00 0.03 0.03 79 1016.4
20260505191529 14 273 3.2 6.4 0.00 0.03 0.03 78 1016.3
20260505190555 14 300 3.2 6.4 0.00 0.03 0.03 81 1016.2
20260505185536 13 218 3.2 6.4 0.00 0.03 0.03 82 1016.3
20260505184535 13 294 1.6 3.2 0.00 0.03 0.03 84 1016.4
20260505183520 13 301 1.6 4.8 0.00 0.03 0.03 86 1016.5
20260505182522 13 285 3.2 9.7 0.00 0.03 0.03 86 1016.4
20260505181525 13 287 3.2 6.4 0.00 0.03 0.03 86 1016.2
20260505180530 13 271 3.2 6.4 0.00 0.03 0.03 87 1016.2
20260505175534 13 290 3.2 4.8 0.00 0.03 0.03 86 1016.1
20260505174516 13 232 1.6 4.8 0.00 0.03 0.03 86 1016.1
20260505173522 13 288 1.6 4.8 0.00 0.03 0.03 86 1016.0
20260505172525 13 293 1.6 6.4 0.00 0.03 0.03 86 1015.9
20260505171532 13 268 1.6 4.8 0.00 0.03 0.03 86 1015.8
20260505170536 13 184 1.6 4.8 0.00 0.03 0.03 86 1015.7
20260505165541 13 243 1.6 4.8 0.00 0.03 0.03 88 1015.7
20260505164546 13 228 1.6 3.2 0.00 0.03 0.03 88 1015.7
20260505163529 13 212 1.6 4.8 0.00 0.03 0.03 88 1015.7
20260505162534 13 0.0 0.0 0.00 0.03 0.03 84 1015.8
20260505161541 13 203 1.6 4.8 0.00 0.03 0.03 85 1015.7
20260505160525 13 114 1.6 4.8 0.00 0.03 0.03 86 1015.7
20260505152524 12 146 0.0 3.2 0.00 0.03 0.03 93 1015.7
20260505151530 12 0.0 0.0 0.00 0.03 0.03 95 1015.6
20260505150530 12 0.0 0.0 0.00 0.03 0.03 96 1015.6
20260505140520 11 0.0 0.0 0.00 0.03 0.03 98 1015.5
20260505124525 11 124 0.0 1.6 0.00 0.03 0.03 98 1014.9
20260505123551 12 0.0 0.0 0.00 0.03 0.03 98 1014.9
20260505122535 11 0.0 0.0 0.03 0.03 0.03 98 1014.9
20260505121520 11 0.0 0.0 0.03 0.03 0.03 97 1014.7
20260505120523 11 0.0 0.0 0.03 0.03 0.03 97 1014.7
20260505115528 11 0.0 0.0 0.03 0.03 0.03 97 1014.7
20260505114532 11 0.0 0.0 0.03 0.03 0.03 97 1014.7
20260505113535 12 0.0 0.0 0.03 0.03 0.03 96 1014.8
20260505112517 12 0.0 0.0 0.00 0.00 0.00 96 1014.8
20260505111521 12 0.0 0.0 0.00 0.03 0.00 96 1014.7
20260505110523 12 0.0 0.0 0.00 0.03 0.00 95 1014.7
20260505101536 12 178 3.2 6.4 0.00 0.03 0.00 92 1014.5
20260505100518 12 181 3.2 6.4 0.00 0.05 0.00 92 1014.9
20260505095533 12 188 1.6 4.8 0.00 0.05 0.00 92 1014.7
20260505094516 12 227 0.0 3.2 0.00 0.05 0.00 92 1014.8
20260505093521 12 189 0.0 1.6 0.00 0.05 0.00 92 1014.6
20260505092525 12 163 0.0 3.2 0.00 0.05 0.00 92 1014.6
20260505091534 12 168 1.6 3.2 0.00 0.05 0.00 92 1014.4
20260505090541 12 195 1.6 3.2 0.00 0.05 0.00 92 1014.3
20260505085523 12 160 1.6 6.4 0.00 0.05 0.00 91 1014.3
20260505084527 12 139 1.6 4.8 0.00 0.05 0.00 91 1014.3
20260505083550 12 167 1.6 3.2 0.00 0.08 0.00 92 1014.4
20260505082549 12 160 3.2 9.7 0.00 0.08 0.00 91 1014.5
20260505081517 12 181 1.6 3.2 0.00 0.08 0.00 91 1014.5
20260505080545 12 177 3.2 6.4 0.00 0.08 0.00 91 1014.6
20260505075529 12 185 1.6 3.2 0.00 0.08 0.00 91 1014.7
20260505074535 12 164 1.6 3.2 0.00 0.08 0.00 92 1014.6
20260505073522 12 183 1.6 3.2 0.00 0.08 0.00 92 1014.7
20260505072543 12 165 1.6 3.2 0.00 0.08 0.00 92 1014.8
20260505071522 12 149 0.0 3.2 0.00 0.08 0.00 93 1014.7
20260505070525 12 178 1.6 4.8 0.00 0.08 0.00 93 1014.7
20260505065528 12 144 1.6 9.7 0.00 0.10 0.10 93 1014.7
20260505064534 12 182 1.6 4.8 0.00 0.10 0.10 93 1014.7
20260505063603 12 169 0.0 3.2 0.00 0.10 0.10 93 1014.7
20260505062528 12 185 0.0 1.6 0.00 0.10 0.10 93 1014.7
20260505061555 12 157 1.6 3.2 0.00 0.10 0.10 93 1014.8
20260505060518 12 175 1.6 4.8 0.00 0.10 0.10 93 1014.9
20260505055525 12 221 0.0 3.2 0.00 0.10 0.10 93 1014.8
20260505054531 12 166 1.6 4.8 0.00 0.10 0.10 93 1014.9
20260505053532 12 212 1.6 4.8 0.00 0.10 0.10 92 1015.3
20260505052528 12 255 3.2 6.4 0.00 0.10 0.10 91 1014.9
20260505051533 12 226 1.6 6.4 0.00 0.10 0.10 91 1015.0
20260505050534 13 202 1.6 4.8 0.00 0.10 0.10 91 1014.9
20260505041530 12 226 1.6 4.8 0.00 0.10 0.10 91 1014.4
20260505040555 13 202 1.6 4.8 0.00 0.10 0.10 91 1014.4
20260505035524 13 167 1.6 3.2 0.00 0.10 0.10 91 1014.2
20260505034531 13 169 3.2 4.8 0.00 0.10 0.10 90 1014.2
20260505033613 13 213 1.6 3.2 0.00 0.10 0.10 90 1014.1
20260505032516 13 182 1.6 4.8 0.00 0.10 0.10 90 1014.0
20260505031525 13 223 0.0 3.2 0.00 0.10 0.10 89 1013.9
20260505030530 13 245 0.0 3.2 0.00 0.10 0.10 89 1013.8
20260505025535 13 203 0.0 4.8 0.00 0.10 0.10 89 1013.7
20260505024519 13 241 1.6 4.8 0.00 0.10 0.10 88 1013.7
20260505023522 13 265 1.6 4.8 0.00 0.10 0.10 88 1013.7
20260505022530 13 204 1.6 3.2 0.00 0.10 0.10 88 1013.5
20260505021529 13 242 1.6 3.2 0.00 0.10 0.10 88 1013.5
20260505020535 13 197 3.2 9.7 0.00 0.10 0.10 87 1013.5
20260505015522 13 231 3.2 9.7 0.00 0.10 0.10 86 1013.7
20260505014525 13 275 1.6 3.2 0.00 0.10 0.10 86 1013.7
20260505013529 13 221 3.2 4.8 0.00 0.10 0.10 85 1013.8
20260505012531 13 213 1.6 6.4 0.00 0.10 0.10 85 1013.8
20260505011534 14 275 3.2 9.7 0.00 0.10 0.10 83 1014.1
20260505010519 14 264 1.6 6.4 0.00 0.10 0.10 84 1014.2
20260505005544 14 247 3.2 9.7 0.00 0.10 0.10 82 1014.3
20260505004625 14 275 4.8 14.5 0.00 0.10 0.10 83 1014.7
20260505003518 14 235 3.2 9.7 0.00 0.10 0.10 81 1014.4
20260505002548 15 225 6.4 17.7 0.00 0.10 0.10 79 1014.3
20260505001536 15 252 4.8 14.5 0.00 0.10 0.10 80 1014.3
20260505000523 14 210 4.8 6.4 0.00 0.10 0.10 80 1014.3
20260504235525 15 213 4.8 14.5 0.00 0.10 0.10 80 1014.2
20260504234529 14 242 3.2 11.3 0.00 0.10 0.10 82 1014.3
20260504233609 14 275 4.8 14.5 0.00 0.10 0.10 82 1014.4
20260504232530 14 207 6.4 14.5 0.00 0.10 0.10 81 1014.3
20260504231516 15 249 4.8 12.9 0.00 0.10 0.10 80 1014.4
20260504230540 15 282 4.8 12.9 0.00 0.10 0.10 79 1014.4
20260504225524 15 269 4.8 14.5 0.00 0.10 0.10 79 1014.5